EW0765 Weather Reports


time (UTC)temp
C
wind
direction
speed
KPH
gust
KPH
rain 1hr
cm
rain 24hr
cm
rain mn
cm
humidity
%
barometer
mb
20260506121505 7 314 0.0 0.0 0.00 2.97 0.58 94 1009.3
20260506120007 7 314 0.0 0.0 0.00 2.97 0.58 94 1009.2
20260506114501 7 314 0.0 0.0 0.00 2.97 0.58 95 1009.3
20260506113059 7 314 0.0 0.0 0.00 2.97 0.58 94 1008.9
20260506111557 7 314 0.0 0.0 0.00 2.97 0.58 94 1008.6
20260506110104 7 313 0.0 0.0 0.00 2.97 0.58 94 1008.3
20260506104557 7 313 0.0 0.0 0.00 2.97 0.58 94 1008.0
20260506103055 7 311 0.0 0.0 0.03 2.97 0.58 94 1008.4
20260506101555 7 310 0.0 0.0 0.03 2.97 0.58 94 1008.1
20260506100054 7 311 0.0 0.0 0.05 2.97 0.58 94 1007.4
20260506094619 7 311 0.0 0.0 0.05 2.97 0.58 94 1007.5
20260506093052 7 300 0.0 4.8 0.05 2.92 0.56 94 1008.2
20260506091550 7 35 0.0 1.6 0.08 2.92 0.56 94 1008.4
20260506090049 7 285 0.0 4.8 0.10 2.90 0.53 94 1008.0
20260506084548 7 13 0.0 4.8 0.18 2.90 0.53 94 1007.8
20260506083048 8 348 0.0 0.0 0.18 2.87 0.51 94 1007.6
20260506081546 8 350 0.0 0.0 0.18 2.84 0.48 94 1007.9
20260506073045 8 26 0.0 0.0 0.10 2.72 0.33 94 1007.9
20260506071546 8 26 0.0 0.0 0.08 2.69 0.30 93 1007.6
20260506061539 8 29 0.0 0.0 0.10 2.67 0.23 93 1007.8
20260506044532 8 15 0.0 0.0 0.10 2.49 0.05 93 1008.2
20260506043030 8 14 0.0 0.0 0.13 2.49 0.05 93 1008.2
20260506041528 8 14 0.0 0.0 0.15 2.46 0.03 93 1008.4
20260506040026 8 43 0.0 6.4 0.20 2.44 2.44 93 1008.5
20260506034524 9 326 0.0 0.0 0.23 2.39 2.39 94 1008.7
20260506033023 9 12 0.0 0.0 0.30 2.36 2.36 93 1008.8
20260506031522 10 316 0.0 0.0 0.36 2.31 2.31 94 1008.8
20260506030030 10 316 0.0 0.0 0.36 2.24 2.24 94 1008.9
20260506024535 10 315 0.0 0.0 0.38 2.16 2.16 94 1008.9
20260506023019 10 315 0.0 0.0 0.36 2.06 2.06 94 1008.5
20260506021517 10 313 0.0 0.0 0.30 1.96 1.96 93 1008.3
20260506020015 10 311 0.0 0.0 0.23 1.85 1.85 94 1008.1
20260506014518 10 244 0.0 0.0 0.18 1.78 1.78 94 1008.1
20260506013015 10 244 0.0 0.0 0.15 1.70 1.70 94 1008.1
20260506011514 10 244 0.0 0.0 0.20 1.65 1.65 94 1008.0
20260506010014 10 244 0.0 0.0 0.23 1.63 1.63 94 1007.8
20260506004512 10 235 0.0 0.0 0.20 1.60 1.60 94 1008.0
20260506003015 10 91 0.0 0.0 0.18 1.55 1.55 93 1007.7
20260506001511 10 90 0.0 0.0 0.08 1.42 1.42 93 1007.4
20260506000011 10 88 0.0 0.0 0.08 1.40 1.40 93 1007.5
20260505234512 10 88 0.0 0.0 0.18 1.40 1.40 93 1007.3
20260505233010 10 113 0.0 0.0 0.36 1.37 1.37 93 1007.3
20260505231510 10 323 0.0 0.0 0.38 1.37 1.37 93 1007.8
20260505230021 10 302 0.0 0.0 0.38 1.32 1.32 93 1007.8
20260505224506 10 54 0.0 0.0 0.33 1.19 1.19 92 1007.9
20260505223002 11 17 0.0 6.4 0.23 1.02 1.02 92 1007.4
20260505221602 11 53 0.0 3.2 0.28 0.99 0.99 92 1007.5
20260505220057 12 32 0.0 0.0 0.36 1.02 0.94 92 1007.2
20260505214555 12 68 0.0 0.0 0.43 0.94 0.86 91 1007.1
20260505213057 13 5 0.0 4.8 0.46 0.86 0.79 90 1007.1
20260505211551 14 295 0.0 3.2 0.43 0.76 0.69 92 1006.8
20260505210047 14 252 0.0 0.0 0.43 0.66 0.58 92 1007.1
20260505204545 15 232 0.0 1.6 0.28 0.48 0.41 90 1006.8
20260505203045 15 251 0.0 0.0 0.23 0.41 0.33 91 1006.7
20260505201547 15 250 0.0 0.0 0.18 0.33 0.25 90 1006.7
20260505200044 15 251 0.0 8.0 0.08 0.23 0.15 88 1006.7
20260505194539 15 269 0.0 0.0 0.05 0.20 0.13 86 1007.0
20260505193038 16 230 0.0 4.8 0.00 0.15 0.08 83 1007.0
20260505191536 17 271 0.0 12.9 0.00 0.15 0.08 79 1006.8
20260505190035 17 196 0.0 4.8 0.00 0.15 0.08 75 1006.9
20260505184535 17 249 0.0 4.8 0.00 0.15 0.08 72 1006.9
20260505183038 17 236 0.0 6.4 0.00 0.15 0.08 72 1006.9
20260505181534 18 211 1.6 12.9 0.00 0.15 0.08 70 1007.0
20260505180045 18 200 0.0 6.4 0.00 0.15 0.08 70 1006.9
20260505174538 18 285 0.0 6.4 0.00 0.15 0.08 70 1006.7
20260505173032 18 280 0.0 19.3 0.00 0.15 0.08 70 1006.7
20260505171533 18 253 0.0 16.1 0.00 0.15 0.08 69 1006.7
20260505170030 18 286 0.0 19.3 0.03 0.15 0.08 68 1006.7
20260505164529 18 304 0.0 19.3 0.03 0.15 0.08 66 1006.6
20260505163030 18 227 0.0 20.9 0.03 0.15 0.08 66 1006.5
20260505161527 19 224 0.0 17.7 0.03 0.15 0.08 65 1006.5
20260505153022 20 207 0.0 19.3 0.00 0.13 0.05 64 1005.6
20260505151519 20 208 1.6 9.7 0.00 0.13 0.05 62 1005.1
20260505124511 16 172 0.0 4.8 0.00 0.13 0.05 77 1005.4
20260505123014 16 266 0.0 9.7 0.00 0.13 0.05 77 1005.3